{"data":{"norad_id":64231,"epoch":"2026-09-21T01:10:33.846240Z","epoch_age_seconds":144560,"freshness":"FRESH","line1":"1 64231U 25118B   26264.04900285  .00002233  00000+0  67185-4 0  9991","line2":"2 64231  58.9916 105.0569 0012102  78.3614 281.8819 15.38495412 72993","mean_motion":15.38495412,"eccentricity":0.0012102,"inclination_deg":58.9916,"raan_deg":105.0569,"arg_perigee_deg":78.3614,"mean_anomaly_deg":281.8819,"bstar":6.7185e-5,"rev_number":7299,"period_min":93.597939179295,"perigee_km":442.29373628103,"apogee_km":458.82190923002,"semimajor_km":6828.6948227555,"source":"CELESTRAK","updated_at":"2026-09-22T09:00:29.626101Z"}}